Location: Cahas Mountain Overlook
(37.0833°N, 80.1000°W)
Time: 11:10:18
(UTC-04:00)

Vanguard 1 Rocket - Pass Details

Date: 14 February 2026
Orbit: 653 x 4214 km, 34.3° (Epoch: 15 March)

Event Time Altitude Azimuth Distance (km) Brightness Sun altitude
Rises 23:39:41 0° 276° (W) 8,351 12.5 -62.7°
Reaches altitude 10° 23:54:19 10° 247° (WSW) 7,346 11.9 -64.0°
Maximum altitude 23:58:43 11° 236° (WSW) 7,156 11.8 -64.3°
Enters shadow 00:02:24 10° 227° (SW) 7,052 11.7 -64.6°
